Weather History for Wisconsin Rapids, WI

Change the Weather History Date:

Tuesday, April 9, 2013

  Actual Average Record
Temperature  
Mean Temperature 36 °F -  
Max Temperature 39 °F 50 °F 77 °F (1955)
Min Temperature 33 °F 28 °F 10 °F (1997)
Degree Days  
Heating Degree Days 29    
Moisture  
Dew Point 33 °F    
Average Humidity 87    
Maximum Humidity 100    
Minimum Humidity 72    
Precipitation  
Precipitation 0.84 in - - ()
Sea Level Pressure  
Sea Level Pressure 30.04 in    
Wind  
Wind Speed 8 mph (NE)    
Max Wind Speed 16 mph    
Max Gust Speed 24 mph    
Visibility 7 miles    
Events Rain    
Averages and records for this station are not official NWS values.
T = Trace of Precipitation, MM = Missing Value Source: NWS Daily Summary

Daily Weather History Graph

Daily Weather History Graph

Search for Another Location

Airport:

Trip Planner

Search our weather history database for the weather conditions in past years. The results will help you decide how hot, cold, wet, or windy it might be!

Date:

Astronomy

Apr. 09, 2013 Rise Set
Actual Time 6:25 AM CDT 7:36 PM CDT
Civil Twilight 5:55 AM CDT 8:06 PM CDT
Nautical Twilight 5:20 AM CDT 8:42 PM CDT
Astronomical Twilight 4:42 AM CDT 9:20 PM CDT
Moon 5:49 AM CDT (4/9) 7:12 PM CDT (4/9)
Length of Visible Light 14h 10m
Length of Day
13h 11m
Waning Crescent, 1% of the Moon is Illuminated
Apr 9
Waning Crescent
Apr 10
New
Apr 18
First Quarter
Apr 25
Full
May 2
Last Quarter

Hourly Weather History & Observations

Time (CDT) Temp. Windchill Dew Point Humidity Pressure Visibility Wind Dir Wind Speed Gust Speed Precip Events Conditions
12:14 AM 37.4 °F 34.9 °F 33.8 °F 87% 30.02 in 7.0 mi ENE 3.5 mph - N/A   Overcast
12:54 AM 37.0 °F 33.3 °F 34.0 °F 89% 30.06 in 7.0 mi NE 4.6 mph - N/A   Overcast
1:01 AM 37.4 °F 32.8 °F 33.8 °F 87% 30.04 in 7.0 mi NE 5.8 mph - N/A   Overcast
1:42 AM 37.4 °F 33.8 °F 33.8 °F 87% 30.03 in 5.0 mi ENE 4.6 mph - N/A   Overcast
1:54 AM 36.0 °F 31.1 °F 34.0 °F 93% 30.05 in 5.0 mi NE 5.8 mph - N/A   Overcast
2:54 AM 36.0 °F 28.5 °F 33.1 °F 89% 30.03 in 7.0 mi ENE 10.4 mph - N/A   Overcast
3:42 AM 35.6 °F 30.7 °F 33.8 °F 93% 30.03 in 9.0 mi ENE 5.8 mph - N/A   Overcast
3:54 AM 35.1 °F 31.0 °F 33.1 °F 92% 30.06 in 8.0 mi ENE 4.6 mph - N/A   Overcast
4:54 AM 35.1 °F 28.6 °F 32.0 °F 89% 30.04 in 8.0 mi ENE 8.1 mph - N/A   Overcast
5:54 AM 35.1 °F 27.9 °F 32.0 °F 89% 30.06 in 8.0 mi East 9.2 mph - N/A   Overcast
6:54 AM 35.1 °F 27.9 °F 32.0 °F 89% 30.06 in 7.0 mi NE 9.2 mph - N/A   Overcast
7:54 AM 35.1 °F 29.3 °F 32.0 °F 89% 30.07 in 8.0 mi ENE 6.9 mph - N/A   Overcast
8:54 AM 35.1 °F 27.9 °F 32.0 °F 89% 30.04 in 4.0 mi NE 9.2 mph - 0.03 in Rain Light Rain
9:54 AM 36.0 °F 29.6 °F 33.1 °F 89% 30.02 in 5.0 mi NE 8.1 mph - 0.06 in Rain Light Rain
10:54 AM 36.0 °F 27.5 °F 33.1 °F 89% 30.01 in 6.0 mi NE 12.7 mph - 0.01 in Rain Light Rain
11:30 AM 35.6 °F 29.2 °F 33.8 °F 93% 29.97 in 2.5 mi NE 8.1 mph - 0.07 in Rain Rain
11:40 AM 35.6 °F 29.2 °F 33.8 °F 93% 29.99 in 3.0 mi NE 8.1 mph - 0.09 in Rain Rain
11:50 AM 35.6 °F 29.2 °F 33.8 °F 93% 30.01 in 2.5 mi NE 8.1 mph - 0.13 in Rain Rain
11:54 AM 36.0 °F 31.1 °F 34.0 °F 93% 30.05 in 2.5 mi Variable 5.8 mph - 0.15 in Rain Rain
12:54 PM 36.0 °F 29.0 °F 34.0 °F 93% 30.06 in 2.0 mi NNE 9.2 mph - 0.32 in Rain Heavy Rain
1:01 PM 35.6 °F 28.0 °F 33.8 °F 93% 30.02 in 2.0 mi NE 10.4 mph - 0.04 in Rain Heavy Rain
1:12 PM 37.4 °F 29.3 °F 33.8 °F 87% 30.00 in 2.5 mi NE 12.7 mph - 0.09 in Rain Rain
1:21 PM 37.4 °F 29.3 °F 35.6 °F 93% 29.97 in 3.0 mi NE 12.7 mph - 0.10 in Rain Rain
1:39 PM 37.4 °F 29.8 °F 37.4 °F 100% 29.98 in 9.0 mi NE 11.5 mph 19.6 mph 0.11 in Rain Light Rain
1:54 PM 37.9 °F 29.6 °F 37.0 °F 97% 30.03 in 10.0 mi NE 13.8 mph - 0.11 in Rain Light Rain
2:54 PM 39.9 °F 32.9 °F 37.0 °F 89% 30.03 in 10.0 mi NE 11.5 mph - 0.02 in Rain Light Rain
3:54 PM 39.9 °F 32.9 °F 37.0 °F 89% 30.03 in 2.5 mi NE 11.5 mph - 0.01 in Rain Light Rain
4:03 PM 39.2 °F 33.6 °F 37.4 °F 93% 30.01 in 3.0 mi NE 8.1 mph - 0.00 in Rain Light Rain
4:32 PM 39.2 °F 32.0 °F 35.6 °F 87% 30.01 in 10.0 mi ENE 11.5 mph 18.4 mph 0.00 in   Overcast
4:54 PM 39.9 °F 31.8 °F 36.0 °F 86% 30.04 in 9.0 mi NE 15.0 mph 19.6 mph 0.00 in   Overcast
5:54 PM 39.9 °F 33.4 °F 35.1 °F 83% 30.07 in 10.0 mi NE 10.4 mph 19.6 mph N/A   Overcast
6:54 PM 39.0 °F 31.8 °F 34.0 °F 82% 30.09 in 10.0 mi NE 11.5 mph 18.4 mph N/A   Overcast
7:20 PM 39.2 °F 32.5 °F 33.8 °F 81% 30.06 in 10.0 mi NE 10.4 mph - N/A   Overcast
7:33 PM 39.2 °F 32.5 °F 33.8 °F 81% 30.06 in 10.0 mi NE 10.4 mph 18.4 mph N/A   Overcast
7:54 PM 39.0 °F 31.8 °F 33.1 °F 79% 30.10 in 10.0 mi NE 11.5 mph - N/A   Overcast
8:54 PM 37.9 °F 30.9 °F 32.0 °F 79% 30.09 in 10.0 mi ENE 10.4 mph - N/A   Overcast
9:28 PM 37.4 °F 30.3 °F 30.2 °F 75% 30.08 in 10.0 mi ENE 10.4 mph 18.4 mph N/A   Overcast
9:54 PM 37.0 °F 27.7 °F 28.9 °F 73% 30.07 in 10.0 mi NE 16.1 mph 21.9 mph N/A   Overcast
10:54 PM 35.1 °F 26.4 °F 27.0 °F 72% 30.08 in 10.0 mi ENE 12.7 mph - 0.01 in Rain Light Rain
11:27 PM 33.8 °F 23.9 °F 26.6 °F 75% 30.02 in 5.0 mi ENE 15.0 mph 24.2 mph 0.07 in Rain Light Freezing Rain
11:40 PM 33.8 °F 25.3 °F 26.6 °F 75% 30.06 in 9.0 mi East 11.5 mph 17.3 mph 0.09 in Rain Light Freezing Rain
11:54 PM 33.1 °F 26.9 °F 25.0 °F 72% 30.10 in 7.0 mi NE 6.9 mph - 0.12 in Rain Light Freezing Rain